Location: Auckland
(36.8500°S, 174.7800°E)
Time: 02:13:14
(UTC+12:00)

ISS - Visible Passes

Search period start: 09 June 2026 00:00
Search period end: 19 June 2026 00:00
Orbit: 413 x 422 km, 51.6° (Epoch: 7 June)

Date Brightness Start Highest point End Pass type
(mag) Time Alt. Az. Time Alt. Az. Time Alt. Az.
9 Jun -0.9 19:02:27 10° N 19:02:29 10° N 19:02:29 10° N visible
10 Jun -0.3 19:49:43 10° NW 19:49:49 11° NW 19:49:49 11° NW visible
11 Jun -2.7 19:01:44 10° NW 19:04:07 39° N 19:04:07 39° N visible
12 Jun -2.6 18:14:03 10° NNW 18:17:01 29° NE 18:18:19 22° E visible
12 Jun -0.4 19:50:47 10° W 19:51:16 13° W 19:51:16 13° W visible
13 Jun -2.9 19:02:16 10° WNW 19:05:22 45° SW 19:05:22 45° SW visible
14 Jun -3.7 18:13:58 10° NW 18:17:20 82° SW 18:19:24 22° SE visible
15 Jun -1.6 19:03:37 10° WSW 19:06:11 20° SSW 19:06:16 20° SSW visible
16 Jun -2.2 18:14:50 10° W 18:17:50 29° SSW 18:20:09 15° SSE visible
17 Jun -0.9 19:05:56 10° SW 19:06:52 11° SSW 19:06:52 11° SSW visible
18 Jun -1.3 18:16:31 10° WSW 18:18:31 15° SSW 18:20:32 10° SSE visible
